| time (UTC) | temp C | wind direction | speed KPH | gust KPH | rain 1hr cm | rain 24hr cm | rain mn cm | humidity % | barometer mb |
| 20260504212517 | 18 | 207 | 8.0 | 14.5 | 0.00 | 0.00 | 0.00 | 45 | 1010.0 |
| 20260504211516 | 18 | 188 | 6.4 | 16.1 | 0.00 | 0.00 | 0.00 | 45 | 1009.9 |
| 20260504210517 | 19 | 194 | 6.4 | 14.5 | 0.00 | 0.00 | 0.00 | 44 | 1009.9 |
| 20260504205615 | 19 | 202 | 6.4 | 11.3 | 0.00 | 0.00 | 0.00 | 43 | 1009.9 |
| 20260504204517 | 19 | 199 | 6.4 | 14.5 | 0.00 | 0.00 | 0.00 | 43 | 1010.0 |
| 20260504203515 | 19 | 201 | 4.8 | 14.5 | 0.00 | 0.00 | 0.00 | 42 | 1010.0 |
| 20260504202516 | 20 | 199 | 8.0 | 14.5 | 0.00 | 0.00 | 0.00 | 41 | 1010.0 |
| 20260504201516 | 20 | 185 | 6.4 | 16.1 | 0.00 | 0.00 | 0.00 | 40 | 1010.1 |
| 20260504200515 | 20 | 200 | 4.8 | 12.9 | 0.00 | 0.00 | 0.00 | 39 | 1010.2 |
| 20260504195718 | 21 | 0.0 | 14.5 | 0.00 | 0.00 | 0.00 | 37 | 1010.2 | |
| 20260504194515 | 21 | 197 | 4.8 | 9.7 | 0.00 | 0.00 | 0.00 | 36 | 1010.2 |
| 20260504193516 | 21 | 195 | 4.8 | 11.3 | 0.00 | 0.00 | 0.00 | 36 | 1010.2 |
| 20260504192615 | 21 | 197 | 4.8 | 16.1 | 0.00 | 0.00 | 0.00 | 35 | 1010.2 |
| 20260504191616 | 22 | 200 | 4.8 | 12.9 | 0.00 | 0.00 | 0.00 | 36 | 1010.2 |
| 20260504190515 | 21 | 206 | 4.8 | 12.9 | 0.00 | 0.00 | 0.00 | 35 | 1010.2 |
| 20260504185515 | 22 | 209 | 6.4 | 16.1 | 0.00 | 0.00 | 0.00 | 34 | 1010.2 |
| 20260504184515 | 22 | 193 | 4.8 | 14.5 | 0.00 | 0.00 | 0.00 | 33 | 1010.2 |
| 20260504183515 | 22 | 204 | 4.8 | 11.3 | 0.00 | 0.00 | 0.00 | 33 | 1010.5 |
| 20260504182515 | 22 | 214 | 3.2 | 11.3 | 0.00 | 0.00 | 0.00 | 33 | 1010.6 |
| 20260504181515 | 22 | 169 | 4.8 | 17.7 | 0.00 | 0.00 | 0.00 | 32 | 1010.7 |
| 20260504180516 | 22 | 200 | 4.8 | 11.3 | 0.00 | 0.00 | 0.00 | 33 | 1010.8 |
| 20260504175516 | 21 | 231 | 3.2 | 14.5 | 0.00 | 0.00 | 0.00 | 34 | 1011.1 |
| 20260504174515 | 21 | 213 | 4.8 | 12.9 | 0.00 | 0.00 | 0.00 | 33 | 1011.2 |
| 20260504173516 | 21 | 188 | 3.2 | 9.7 | 0.00 | 0.00 | 0.00 | 33 | 1011.3 |
| 20260504172515 | 21 | 205 | 6.4 | 14.5 | 0.00 | 0.00 | 0.00 | 32 | 1011.1 |
| 20260504171616 | 21 | 201 | 3.2 | 14.5 | 0.00 | 0.00 | 0.00 | 34 | 1011.3 |
| 20260504170615 | 21 | 166 | 3.2 | 19.3 | 0.00 | 0.00 | 0.00 | 35 | 1011.3 |
| 20260504150515 | 17 | 193 | 6.4 | 12.9 | 0.00 | 0.00 | 0.00 | 38 | 1012.3 |
| 20260504140514 | 15 | 205 | 4.8 | 12.9 | 0.00 | 0.00 | 0.00 | 44 | 1012.9 |
| 20260504130517 | 13 | 212 | 3.2 | 8.0 | 0.00 | 0.00 | 0.00 | 51 | 1013.6 |
| 20260504110517 | 8 | 182 | 1.6 | 4.8 | 0.00 | 0.00 | 0.00 | 61 | 1013.5 |
| 20260504100516 | 5 | 209 | 1.6 | 3.2 | 0.00 | 0.00 | 0.00 | 71 | 1013.0 |
| 20260504081516 | 5 | 288 | 0.0 | 1.6 | 0.00 | 0.00 | 0.00 | 71 | 1012.4 |
| 20260504080516 | 5 | 288 | 0.0 | 3.2 | 0.00 | 0.00 | 0.00 | 69 | 1012.5 |
| 20260504050516 | 4 | 0.0 | 0.0 | 0.00 | 0.00 | 0.00 | 66 | 1012.5 | |
| 20260504045516 | 4 | 0.0 | 1.6 | 0.00 | 0.00 | 0.00 | 65 | 1012.4 | |
| 20260504044516 | 4 | 290 | 1.6 | 1.6 | 0.00 | 0.00 | 0.00 | 64 | 1012.5 |
| 20260504043516 | 4 | 0.0 | 0.0 | 0.00 | 0.00 | 0.00 | 65 | 1012.5 | |
| 20260504042517 | 4 | 290 | 0.0 | 1.6 | 0.00 | 0.00 | 0.00 | 65 | 1012.5 |
| 20260504041516 | 4 | 0.0 | 0.0 | 0.00 | 0.00 | 0.00 | 63 | 1012.4 | |
| 20260504040615 | 4 | 292 | 0.0 | 1.6 | 0.00 | 0.00 | 0.00 | 62 | 1012.3 |
| 20260504035516 | 4 | 0.0 | 0.0 | 0.00 | 0.00 | 0.00 | 62 | 1012.1 | |
| 20260504034515 | 4 | 291 | 0.0 | 1.6 | 0.00 | 0.00 | 0.00 | 62 | 1012.1 |
| 20260504033515 | 4 | 0.0 | 1.6 | 0.00 | 0.00 | 0.00 | 63 | 1012.0 | |
| 20260504032516 | 5 | 0.0 | 0.0 | 0.00 | 0.00 | 0.00 | 63 | 1012.0 | |
| 20260504031517 | 5 | 0.0 | 0.0 | 0.00 | 0.00 | 0.00 | 62 | 1012.1 | |
| 20260504030515 | 5 | 0.0 | 0.0 | 0.00 | 0.00 | 0.00 | 63 | 1012.1 | |
| 20260504025515 | 5 | 0.0 | 0.0 | 0.00 | 0.00 | 0.00 | 62 | 1012.0 | |
| 20260504024616 | 5 | 0.0 | 1.6 | 0.00 | 0.00 | 0.00 | 61 | 1012.0 | |
| 20260504023515 | 5 | 289 | 0.0 | 3.2 | 0.00 | 0.00 | 0.00 | 62 | 1012.1 |
| 20260504022516 | 6 | 288 | 0.0 | 3.2 | 0.00 | 0.00 | 0.00 | 58 | 1012.0 |
| 20260504021616 | 6 | 288 | 0.0 | 1.6 | 0.00 | 0.00 | 0.00 | 58 | 1012.0 |
| 20260504020515 | 6 | 288 | 0.0 | 1.6 | 0.00 | 0.00 | 0.00 | 58 | 1012.0 |
| 20260504015515 | 6 | 0.0 | 0.0 | 0.00 | 0.00 | 0.00 | 56 | 1012.0 | |
| 20260504014516 | 6 | 0.0 | 0.0 | 0.00 | 0.00 | 0.00 | 54 | 1011.9 | |
| 20260504013515 | 7 | 288 | 0.0 | 1.6 | 0.00 | 0.00 | 0.00 | 55 | 1011.9 |
| 20260504012515 | 7 | 0.0 | 1.6 | 0.00 | 0.00 | 0.00 | 56 | 1011.8 | |
| 20260504011517 | 7 | 291 | 0.0 | 1.6 | 0.00 | 0.00 | 0.00 | 51 | 1011.6 |
| 20260504010515 | 7 | 0.0 | 0.0 | 0.00 | 0.00 | 0.00 | 51 | 1011.4 | |
| 20260504005515 | 8 | 0.0 | 0.0 | 0.00 | 0.00 | 0.00 | 49 | 1011.3 | |
| 20260504004515 | 8 | 0.0 | 0.0 | 0.00 | 0.00 | 0.00 | 48 | 1011.2 | |
| 20260504003516 | 8 | 0.0 | 0.0 | 0.00 | 0.00 | 0.00 | 47 | 1011.0 | |
| 20260504002515 | 8 | 0.0 | 0.0 | 0.00 | 0.00 | 0.00 | 46 | 1010.9 | |
| 20260504001516 | 9 | 0.0 | 0.0 | 0.00 | 0.00 | 0.00 | 46 | 1010.7 | |
| 20260504000615 | 9 | 290 | 0.0 | 1.6 | 0.00 | 0.00 | 0.00 | 45 | 1010.6 |
| 20260503235616 | 10 | 290 | 0.0 | 3.2 | 0.00 | 0.00 | 0.00 | 45 | 1010.5 |
| 20260503234515 | 10 | 289 | 0.0 | 3.2 | 0.00 | 0.00 | 0.00 | 43 | 1010.4 |
| 20260503233515 | 10 | 287 | 1.6 | 4.8 | 0.00 | 0.00 | 0.00 | 43 | 1010.4 |
| 20260503232516 | 10 | 285 | 1.6 | 4.8 | 0.00 | 0.00 | 0.00 | 43 | 1010.3 |
| 20260503231516 | 10 | 305 | 1.6 | 4.8 | 0.00 | 0.00 | 0.00 | 42 | 1010.2 |
| 20260503230515 | 10 | 302 | 1.6 | 6.4 | 0.00 | 0.00 | 0.00 | 41 | 1010.1 |
| 20260503225516 | 10 | 11 | 1.6 | 6.4 | 0.00 | 0.00 | 0.00 | 42 | 1010.1 |
| 20260503224515 | 11 | 326 | 3.2 | 8.0 | 0.00 | 0.00 | 0.00 | 42 | 1010.0 |
| 20260503223616 | 11 | 81 | 3.2 | 14.5 | 0.00 | 0.00 | 0.00 | 41 | 1009.9 |
| 20260503222516 | 11 | 348 | 3.2 | 12.9 | 0.00 | 0.00 | 0.00 | 41 | 1009.8 |
| 20260503221515 | 11 | 323 | 1.6 | 6.4 | 0.00 | 0.00 | 0.00 | 43 | 1009.7 |
| 20260503221017 | 11 | 44 | 3.2 | 8.0 | 0.00 | 0.00 | 0.00 | 42 | 1009.8 |
| 20260503215515 | 10 | 24 | 3.2 | 9.7 | 0.00 | 0.00 | 0.00 | 43 | 1009.9 |
| 20260503214515 | 10 | 305 | 4.8 | 16.1 | 0.00 | 0.00 | 0.00 | 42 | 1009.9 |
| 20260503213516 | 11 | 351 | 3.2 | 11.3 | 0.00 | 0.00 | 0.00 | 42 | 1009.8 |